Regional Weather Roundup
Issued by NWS

Home | Current Version | Previous Version | Graphics & Text | Print | Product List | Glossary On
Versions: 1 2 3 4 5 6 7 8 9 10 11 12 13 14 15 16 17 18 19 20 21 22 23 24 25 26 27 28 29 30 31 32 33 34 35 36 37 38 39 40 41 42 43 44 45 46 47 48 49 50
000
ASUS43 KMKX 011700
RWRWI

WISCONSIN REGIONAL WEATHER ROUNDUP
NATIONAL WEATHER SERVICE MILWAUKEE/SULLIVAN WI
1200 PM CDT MON SEP 01 2014

NOTE: "FAIR" INDICATES FEW OR NO CLOUDS BELOW 12,000 FEET WITH NO
SIGNIFICANT WEATHER AND/OR OBSTRUCTIONS TO VISIBILITY.

WIZ001-002-006>008-014>016-023>028-011800-
NORTHWEST WISCONSIN

CITY           SKY/WX    TMP DP  RH WIND       PRES   REMARKS
SUPERIOR ARPT  CLOUDY    69  59  72 NW12      29.65R
ASHLAND        CLOUDY    68  61  78 W10       29.65R
HAYWARD        CLOUDY    67  63  87 CALM      29.67R
SIREN          CLOUDY    66  60  81 NW8       29.70R
RICE LAKE      CLOUDY    68  61  79 W10       29.71R
LADYSMITH      CLOUDY    67  64  89 SW6       29.69R
EAU CLAIRE     PTSUNNY   73  64  73 W10       29.68R
MENOMONIE      MOSUNNY   72  63  72 W14       29.69R
NEW RICHMOND   CLOUDY    68  64  88 NW6       29.71R
OSCEOLA        PTSUNNY   69  66  91 W7        29.74R
$$

WIZ003>005-009-010-017-018-011800-
NORTH CENTRAL WISCONSIN

CITY           SKY/WX    TMP DP  RH WIND       PRES   REMARKS
WOODRUFF       CLOUDY    64  62  92 W7        29.66R
RHINELANDER    CLOUDY    63  62  97 SW13      29.67R
EAGLE RIVER    LGT RAIN  64  63  94 SW6       29.63F
LAND O LAKES   CLOUDY    64  63  97 SW5       29.64F
PHILLIPS       CLOUDY    64  62  94 SW7       29.66R
TOMAHAWK       HVY RAIN  63  61  95 W5        29.67R
MEDFORD        CLOUDY    64  62  92 SW8       29.68R
MERRILL        CLOUDY    66  64  92 SW9       29.68R
$$

WIZ029-030-035-036-043>047-011800-
CENTRAL WISCONSIN

CITY           SKY/WX    TMP DP  RH WIND       PRES   REMARKS
WAUSAU         CLOUDY    68  63  84 SW8       29.67S
MOSINEE        CLOUDY    66  64  94 SW8       29.69F
MARSHFIELD     CLOUDY    67  64  90 SW12      29.68S
STEVENS POINT  CLOUDY    65  63  93 SW8       29.69F
WAUPACA        CLOUDY    69  67  93 S8        29.70F
WAUTOMA        PTSUNNY   70  66  88 SW8       29.70F
WISC RAPIDS    CLOUDY    70  65  84 SW13G22   29.70S
CAMP DOUGLAS   NOT AVBL
$$

WIZ011>013-019>022-031-037>040-048>050-011800-
NORTHEAST WISCONSIN

CITY           SKY/WX    TMP DP  RH WIND       PRES   REMARKS
ANTIGO         CLOUDY    63  62  96 SW10      29.69R
STURGEON BAY   CLOUDY    66  63  88 SW10G17   29.69F
GREEN BAY      CLOUDY    68  66  93 SW6       29.70F
MANITOWOC      NOT AVBL
APPLETON       TSTM      66  64  94 SW7       29.72S
CLINTONVILLE   LGT RAIN  66  64  94 S10       29.69F
OSHKOSH        RAIN      69  65  86 SW7       29.71S FOG
$$

WIZ032>034-041-042-053>061-011800-
SOUTHWEST WISCONSIN

CITY           SKY/WX    TMP DP  RH WIND       PRES   REMARKS
LA CROSSE      PTSUNNY   76  65  68 W8        29.70R
SPARTA         CLOUDY    70  67  90 SW5       29.70S
VIROQUA        CLOUDY    67  67 100 SW9       29.74R
BOSCOBEL       CLOUDY    73  66  78 SW12G18   29.73R
PRAIRIE DU CHI CLOUDY    71  65  81 SW9       29.73S
PLATTEVILLE    CLOUDY    71  66  85 SW13      29.77R
$$

WIZ056-057-062-063-064-067-068-011800-
SOUTH CENTRAL WISCONSIN

CITY           SKY/WX    TMP DP  RH WIND       PRES   REMARKS
BARABOO/DELLS  CLOUDY    67  64  87 SW12      29.72R
LONE ROCK      NOT AVBL
WATERTOWN      PTSUNNY   73  65  77 SW12G18   29.74F
MADISON        CLOUDY    74  63  68 SW10G21   29.73S
MIDDLETON      CLOUDY    74  62  67 SW14      29.74R
MONROE         CLOUDY    77  64  65 SW16G23   29.75F
JANESVILLE     PTSUNNY   79  63  57 SW12G17   29.74F HX  80
$$

WIZ051-052-058>065-066-070>072-011800-
SOUTHEAST WISCONSIN

CITY           SKY/WX    TMP DP  RH WIND       PRES   REMARKS
MILWAUKEE      CLOUDY    77  68  73 SW22G30   29.75S
WAUKESHA       NOT AVBL
MILWAUKEE/TIMM MOSUNNY   75  64  69 SW14G25   29.75S
RACINE         CLOUDY    77  68  73 SW13      29.76F
BURLINGTON     CLOUDY    73  67  81 W16G26    29.76S
KENOSHA        CLOUDY    79  70  74 W20G25    29.75F HX  82
FOND DU LAC    LGT RAIN  70  64  81 SW8       29.72F
SHEBOYGAN      CLOUDY    74  70  87 SW9       29.71F
WEST BEND      PTSUNNY   73  66  78 SW15      29.73S
JUNEAU         CLOUDY    70  65  85 S10       29.75S
$$

LSZ147-162-011800-
LAKE SUPERIOR

STATION/POSITION TIME  TEMP    WIND        PRES    WAVE
                       AIR SEA DIR/SP/G            HT/PER
                 (UTC) (F)     (DEG/KT/KT) (MB)    (FT/S)
W MID LAKE BUOY  1550   60 58  230/ 10/ 14 1001.0R   2/ 4
DEVILS ISLAND    1600   62     260/ 12/ 15 1002.0R
PORT WING        1640   65     250/  6/ 10 1004.1R
SAXON HARBOR     1600   66     220/  2/  5 1002.7S
$$

LMZ867-665-643>646-011800-
LAKE MICHIGAN

STATION/POSITION TIME  TEMP    WIND        PRES    WAVE
                       AIR SEA DIR/SP/G            HT/PER
                 (UTC) (F)     (DEG/KT/KT) (MB)    (FT/S)
N MID LAKE BUOY  1550   67 65  210/ 16/ 19 1004.3R   4/ 5
NORTHPORT PIER   1600   69     210/  3/  7 1005.1S
KEWAUNEE LAKESHO 1600   68     250/  9/ 14 1005.0F
SHEBOYGAN LAKESH 1600   70 55   CALM  /  1 1006.3F
ATWATER BUOY     1600   72     210/ 16/ 25 1008.2R
MILWAUKEE LAKESH 1600   74     240/ 15/ 20   N/A
S MID LAKE BUOY  1550   72 69  200/ 17/ 21 1007.6R   4/ 5
KENOSHA   LAKESH 1600   74     220/  9/ 14 1007.8R
$$

TC  - TEMPERATURE IN CELSIUS
VSB - VISIBILITY IN STATUTE MILES
WCI - WIND CHILL INDEX
HX  - HEAT INDEX



USA.gov is the U.S. government's official web portal to all federal, state and local government web resources and services.